Regional Weather Roundup
Issued by NWS

Home | Current Version | Previous Version | Graphics & Text | Print | Product List | Glossary On
Versions: 1 2 3 4 5 6 7 8 9 10 11 12 13 14 15 16 17 18 19 20 21 22 23 24 25 26 27 28 29 30 31 32 33 34 35 36 37 38 39 40 41 42 43 44 45 46 47 48 49 50
000
ASUS43 KFSD 260710
RWRSD

WEATHER ROUNDUP FOR SOUTH DAKOTA
NATIONAL WEATHER SERVICE SIOUX FALLS SD
100 AM CST FRI DEC 26 2014

NOTE: "FAIR" INDICATES FEW OR NO CLOUDS BELOW 12,000 FEET WITH NO
SIGNIFICANT WEATHER AND/OR OBSTRUCTIONS TO VISIBILITY.


SDZ001>005-009-010-012>017-260800-
NORTHWEST AND NORTH CENTRAL SOUTH DAKOTA

CITY           SKY/WX    TMP DP  RH WIND       PRES   REMARKS
BUFFALO          N/A     21  16  81 N10       29.95S WCI  10
FAITH            N/A     22  16  78 N17       30.00S WCI   8
MOBRIDGE       CLOUDY    26  21  81 NW14      29.97S WCI  14
$$

SDZ012>016-024>037-041>051-057-063-072>074-260800-
SOUTHWEST AND SOUTH CENTRAL SOUTH DAKOTA

CITY           SKY/WX    TMP DP  RH WIND       PRES   REMARKS
RAPID CTY ARPT CLOUDY    22  17  81 N17       29.98S WCI   8
PIERRE         CLOUDY    26  21  81 NW12      29.99R WCI  16
CUSTER         MOCLDY    11   8  88 CALM      29.84S
ELLSWORTH AFB  CLOUDY    22  18  87 N13       29.97F WCI   9
PHILIP         CLOUDY    25  19  78 NW10      30.03R WCI  15
PINE RIDGE     CLOUDY    21  17  84 N12       29.97S WCI   9
SPEARFISH      FLURRIES  19  16  86 NW7       29.98S WCI  10
WINNER         CLOUDY    26  23  88 N12       29.95F WCI  16
$$

SDZ004>011-016>023-039-040-260800-
NORTHEAST SOUTH DAKOTA

CITY           SKY/WX    TMP DP  RH WIND       PRES   REMARKS
ABERDEEN       CLOUDY    26  23  88 N16       29.98R WCI  14
WATERTOWN      LGT SNOW  25  21  85 N16       29.89R FOG     WCI  12
SISSETON         N/A     26  24  92 NE17      29.95S WCI  13
$$

SDZ017-020-022-023-036>040-048>070-260800-
SOUTHEAST SOUTH DAKOTA

CITY           SKY/WX    TMP DP  RH WIND       PRES   REMARKS
SIOUX FALLS    CLOUDY    29  26  89 N14       29.86R WCI  18
HURON          LGT SNOW  26  23  88 N13       29.95R FOG     WCI  15
CHAMBERLAIN    CLOUDY    25  23  91 N9        29.96S WCI  16
MITCHELL       CLOUDY    28  24  85 N15       29.94R WCI  16
YANKTON        CLOUDY    30  25  80 N14       29.88R WCI  20
$$

ABBREVIATIONS USED IN REMARKS
   TC - TEMPERATURE IN CELSIUS
  WCI - WIND CHILL INDEX
   HX - HEAT INDEX
  VSB - VISIBILITY



USA.gov is the U.S. government's official web portal to all federal, state and local government web resources and services.